Weather History for Idabel, OK

Change the Weather History Date:

Wednesday, February 19, 2014

  Actual Average (KDEQ) Record (KDEQ)
Temperature  
Mean Temperature 58 °F 46 °F  
Max Temperature 64 °F 59 °F 81 °F (1986)
Min Temperature 53 °F 33 °F 12 °F (1978)
Degree Days  
Heating Degree Days 6 19  
Month to date heating degree days 400  
Since 1 July heating degree days 2336  
Cooling Degree Days 0 0  
Month to date cooling degree days 0  
Year to date cooling degree days 1  
Growing Degree Days 8 (Base 50)    
Moisture  
Dew Point 58 °F    
Average Humidity 92    
Maximum Humidity 100    
Minimum Humidity 82    
Precipitation  
Precipitation 0.00 in 0.12 in 1.63 in (1939)
Month to date precipitation 2.75  
Year to date precipitation 6.07  
Snow  
Snow 0.00 in - - ()
Month to date snowfall  
Since 1 July snowfall  
Snow Depth -    
Sea Level Pressure  
Sea Level Pressure 29.86 in    
Wind  
Wind Speed 7 mph (SE)    
Max Wind Speed 13 mph    
Max Gust Speed 17 mph    
Visibility 5 miles    
Events      
T = Trace of Precipitation, MM = Missing Value Source: NWS Daily Summary

Daily Weather History Graph

Daily Weather History Graph

Search for Another Location

Airport:

Trip Planner

Search our weather history database for the weather conditions in past years. The results will help you decide how hot, cold, wet, or windy it might be!

Date:

Astronomy

Feb. 19, 2014 Rise Set
Actual Time 6:59 AM CST 6:07 PM CST
Civil Twilight 6:34 AM CST 6:32 PM CST
Nautical Twilight 6:05 AM CST 7:01 PM CST
Astronomical Twilight 5:36 AM CST 7:30 PM CST
Moon 10:45 PM CST (2/19) 9:20 AM CST (2/19)
Length of Visible Light 11h 58m
Length of Day
11h 07m
Waning Gibbous, 79% of the Moon is Illuminated
Feb 19
Waning Gibbous
Feb 22
Last Quarter
Mar 1
New
Mar 8
First Quarter
Mar 16
Full

Hourly Weather History & Observations

Time (CST) Temp. Dew Point Humidity Pressure Visibility Wind Dir Wind Speed Gust Speed Precip Events Conditions
12:15 AM 55.4 °F 51.8 °F 88% 29.92 in 5.0 mi ENE 4.6 mph - N/A   Clear
12:35 AM 55.4 °F 53.6 °F 94% 29.92 in 5.0 mi East 4.6 mph - N/A   Clear
12:55 AM 55.4 °F 53.6 °F 94% 29.93 in 5.0 mi East 3.5 mph - N/A   Clear
1:15 AM 53.6 °F 51.8 °F 94% 29.93 in 5.0 mi ENE 3.5 mph - N/A   Clear
1:35 AM 55.4 °F 53.6 °F 94% 29.92 in 5.0 mi East 6.9 mph - N/A   Clear
1:55 AM 53.6 °F 51.8 °F 94% 29.92 in 4.0 mi ENE 5.8 mph - N/A   Clear
2:15 AM 53.6 °F 51.8 °F 94% 29.93 in 3.0 mi ENE 6.9 mph - N/A   Clear
2:35 AM 53.6 °F 53.6 °F 100% 29.94 in 4.0 mi East 8.1 mph - N/A   Clear
2:55 AM 55.4 °F 53.6 °F 94% 29.94 in 4.0 mi East 6.9 mph - N/A   Mostly Cloudy
3:15 AM 55.4 °F 53.6 °F 94% 29.94 in 4.0 mi East 6.9 mph - N/A   Overcast
3:35 AM 55.4 °F 55.4 °F 100% 29.94 in 4.0 mi East 6.9 mph - N/A   Overcast
3:55 AM 57.2 °F 55.4 °F 94% 29.93 in 5.0 mi ESE 6.9 mph - N/A   Overcast
4:15 AM 57.2 °F 55.4 °F 94% 29.93 in 5.0 mi ESE 6.9 mph - N/A   Overcast
4:35 AM 57.2 °F 55.4 °F 94% 29.94 in 5.0 mi East 5.8 mph - N/A   Overcast
4:55 AM 57.2 °F 55.4 °F 94% 29.93 in 5.0 mi ESE 5.8 mph - N/A   Overcast
5:15 AM 57.2 °F 55.4 °F 94% 29.93 in 5.0 mi ESE 5.8 mph - N/A   Overcast
5:35 AM 57.2 °F 55.4 °F 94% 29.93 in 5.0 mi ESE 5.8 mph - N/A   Overcast
5:55 AM 59.0 °F 55.4 °F 88% 29.94 in 3.0 mi ESE 5.8 mph - N/A   Overcast
6:15 AM 59.0 °F 55.4 °F 88% 29.94 in 2.5 mi ESE 5.8 mph - N/A   Overcast
6:35 AM 59.0 °F 55.4 °F 88% 29.94 in 2.5 mi ESE 6.9 mph - N/A   Overcast
6:55 AM 59.0 °F 55.4 °F 88% 29.94 in 1.8 mi SE 6.9 mph - N/A   Overcast
7:15 AM 59.0 °F 55.4 °F 88% 29.94 in 1.8 mi SSE 6.9 mph - N/A   Overcast
7:35 AM 59.0 °F 57.2 °F 94% 29.95 in 1.8 mi SSE 9.2 mph - N/A   Overcast
7:55 AM 59.0 °F 59.0 °F 100% 29.96 in 1.5 mi SSE 9.2 mph - N/A   Overcast
8:15 AM 59.0 °F 59.0 °F 100% 29.96 in 1.8 mi SSE 8.1 mph - N/A   Overcast
8:35 AM 60.8 °F 59.0 °F 94% 29.96 in 1.8 mi SE 6.9 mph - N/A   Overcast
8:55 AM 60.8 °F 59.0 °F 94% 29.96 in 2.0 mi SSE 9.2 mph - N/A   Overcast
9:15 AM 60.8 °F 59.0 °F 94% 29.96 in 2.0 mi SSE 10.4 mph - N/A   Overcast
9:35 AM 60.8 °F 59.0 °F 94% 29.96 in 1.2 mi SSE 9.2 mph - N/A   Overcast
9:55 AM 60.8 °F 59.0 °F 94% 29.97 in 1.2 mi SSE 9.2 mph - N/A   Overcast
10:15 AM 60.8 °F 59.0 °F 94% 29.97 in 1.2 mi SSE 9.2 mph - N/A   Overcast
10:35 AM 60.8 °F 59.0 °F 94% 29.96 in 1.8 mi SE 8.1 mph - N/A   Overcast
10:55 AM 60.8 °F 60.8 °F 100% 29.96 in 2.0 mi SSE 6.9 mph - N/A   Overcast
11:15 AM 62.6 °F 60.8 °F 94% 29.94 in 2.0 mi SE 9.2 mph - N/A   Overcast
11:35 AM 62.6 °F 60.8 °F 94% 29.94 in 3.0 mi SE 9.2 mph - N/A   Overcast
11:55 AM 62.6 °F 60.8 °F 94% 29.92 in 2.5 mi SE 10.4 mph - N/A   Overcast
12:15 PM 62.6 °F 60.8 °F 94% 29.91 in 2.5 mi SE 9.2 mph - N/A   Overcast
12:35 PM 62.6 °F 60.8 °F 94% 29.90 in 4.0 mi SE 10.4 mph - N/A   Overcast
12:55 PM 62.6 °F 60.8 °F 94% 29.88 in 3.0 mi SSE 10.4 mph 16.1 mph N/A   Overcast
1:15 PM 62.6 °F 60.8 °F 94% 29.87 in 3.0 mi SSE 8.1 mph - N/A   Overcast
1:35 PM 62.6 °F 60.8 °F 94% 29.85 in 3.0 mi SSE 9.2 mph - N/A   Overcast
1:55 PM 62.6 °F 60.8 °F 94% 29.85 in 3.0 mi SE 8.1 mph - N/A   Overcast
2:15 PM 62.6 °F 60.8 °F 94% 29.84 in 5.0 mi SE 6.9 mph - N/A   Overcast
2:35 PM 62.6 °F 60.8 °F 94% 29.84 in 7.0 mi SE 9.2 mph - N/A   Overcast
2:55 PM 62.6 °F 60.8 °F 94% 29.83 in 7.0 mi SSE 10.4 mph - N/A   Overcast
3:00 PM 64.4 °F 62.6 °F 94% 29.83 in 7.0 mi SSE 10.4 mph - N/A   Overcast
3:15 PM 62.6 °F 60.8 °F 94% 29.83 in 7.0 mi SE 10.4 mph - N/A   Overcast
3:35 PM 62.6 °F 60.8 °F 94% 29.82 in 7.0 mi SE 10.4 mph - N/A   Overcast
3:55 PM 62.6 °F 60.8 °F 94% 29.80 in 7.0 mi ESE 10.4 mph - N/A   Overcast
4:15 PM 62.6 °F 60.8 °F 94% 29.80 in 7.0 mi ESE 10.4 mph - N/A   Overcast
4:35 PM 62.6 °F 60.8 °F 94% 29.79 in 7.0 mi ESE 8.1 mph - N/A   Mostly Cloudy
4:55 PM 62.6 °F 60.8 °F 94% 29.79 in 5.0 mi ESE 9.2 mph - N/A   Mostly Cloudy
5:15 PM 62.6 °F 59.0 °F 88% 29.78 in 5.0 mi ESE 10.4 mph - N/A   Scattered Clouds
5:35 PM 62.6 °F 59.0 °F 88% 29.78 in 7.0 mi ESE 9.2 mph - N/A   Scattered Clouds
5:55 PM 62.6 °F 59.0 °F 88% 29.78 in 7.0 mi ESE 9.2 mph - N/A   Scattered Clouds
6:15 PM 62.6 °F 59.0 °F 88% 29.77 in 7.0 mi ESE 9.2 mph - N/A   Scattered Clouds
6:35 PM 62.6 °F 59.0 °F 88% 29.77 in 7.0 mi ESE 10.4 mph - N/A   Scattered Clouds
6:55 PM 62.6 °F 59.0 °F 88% 29.77 in 7.0 mi ESE 9.2 mph - N/A   Scattered Clouds
7:15 PM 60.8 °F 59.0 °F 94% 29.76 in 7.0 mi ESE 10.4 mph - N/A   Scattered Clouds
7:35 PM 60.8 °F 59.0 °F 94% 29.75 in 7.0 mi ESE 9.2 mph - N/A   Scattered Clouds
7:55 PM 60.8 °F 59.0 °F 94% 29.75 in 7.0 mi ESE 10.4 mph - N/A   Scattered Clouds
8:15 PM 60.8 °F 59.0 °F 94% 29.74 in 7.0 mi ESE 11.5 mph - N/A   Scattered Clouds
8:35 PM 60.8 °F 59.0 °F 94% 29.74 in 7.0 mi East 11.5 mph - N/A   Scattered Clouds
8:55 PM 60.8 °F 59.0 °F 94% 29.73 in 7.0 mi ESE 11.5 mph - N/A   Scattered Clouds
9:15 PM 60.8 °F 59.0 °F 94% 29.73 in 7.0 mi East 9.2 mph - N/A   Scattered Clouds
9:35 PM 60.8 °F 59.0 °F 94% 29.73 in 10.0 mi ESE 6.9 mph - N/A   Scattered Clouds
9:55 PM 62.6 °F 59.0 °F 88% 29.72 in 10.0 mi SE 9.2 mph - N/A   Mostly Cloudy
10:35 PM 62.6 °F 57.2 °F 82% 29.71 in 10.0 mi SSE 11.5 mph - N/A   Scattered Clouds
10:55 PM 62.6 °F 57.2 °F 82% 29.70 in 10.0 mi SSE 11.5 mph 17.3 mph N/A   Mostly Cloudy
11:15 PM 62.6 °F 57.2 °F 82% 29.68 in 10.0 mi SSE 12.7 mph - N/A   Mostly Cloudy
11:35 PM 62.6 °F 57.2 °F 82% 29.69 in 10.0 mi SSE 11.5 mph - N/A   Mostly Cloudy
11:55 PM 62.6 °F 57.2 °F 82% 29.68 in 10.0 mi SSE 11.5 mph - N/A   Mostly Cloudy